This demonstration page uses our WeatherBlox Daily Observations layout. Learn more.

39.08367, -84.50855

Hourly Observations for January 25, 2020

Temp ( °F °C ) Dew Point ( °F °C ) Humidity (%) Winds ( mph kmh ) Pressure ( in mb ) Visibility ( mi km ) Precip ( " mm )
12:22 am 00:22 Cloudy 39 3.9 37 2.8 93 93 S 5 7 29.91 1013 10 16.0934 0 0
12:53 am 00:53 Cloudy with Light Rain 39 3.9 38 3.3 96 96 SW 5 7 29.9 1012 10 16.0934 0.001 0.001
1:18 am 01:18 Cloudy with Light Rain 39 3.9 38 3.3 96 96 SW 5 7 29.91 1013 6 9.65604 0.02 0.508
1:53 am 01:53 Cloudy with Light Rain 40 4.4 38 3.3 93 93 SW 9 15 29.89 1012 9 14.48406 0.03 0.762
2:53 am 02:53 Cloudy with Light Rain 39 3.9 37 2.8 93 93 SW 7 11 29.9 1013 9 14.48406 0.02 0.508
3:13 am 03:13 Cloudy with Light Rain 39 3.9 36 2.2 89 89 SW 9 15 29.92 1013 10 16.0934 0.001 0.001
3:53 am 03:53 Cloudy 39 3.9 36 2.2 89 89 SW 10 17 29.91 1013 10 16.0934 0.001 0.001
4:27 am 04:27 Cloudy with Light Rain 39 3.9 37 2.8 93 93 SW 5 7 29.92 1013 9 14.48406 0.001 0.001
4:53 am 04:53 Cloudy with Light Rain 39 3.9 37 2.8 93 93 SW 7 11 29.91 1013 9 14.48406 0.001 0.001
5:53 am 05:53 Cloudy 39 3.9 36 2.2 89 89 SW 7 11 29.93 1013 10 16.0934 0.001 0.001
6:13 am 06:13 Cloudy 38 3.3 36 2.2 93 93 WSW 9 15 29.95 1014 10 16.0934 0 0
6:48 am 06:48 Cloudy 37 3 36 2 93 93 SW 10 17 29.96 1015 10 16.0934 0 0
6:53 am 06:53 Cloudy 38 3.3 35 1.7 89 89 SW 8 13 29.94 1014 10 16.0934 0 0
7:53 am 07:53 Cloudy 38 3.3 34 1.1 86 86 W 15 24 29.97 1015 10 16.0934 0 0
8:37 am 08:37 Mostly Cloudy 37 2.8 33 0.6 86 86 WSW 13 20 30 1016 10 16.0934 0 0
8:53 am 08:53 Cloudy 37 2.8 33 0.6 86 86 SW 12 19 29.98 1015 10 16.0934 0 0
9:53 am 09:53 Cloudy 37 2.8 33 0.6 86 86 WSW 14 22 29.99 1016 10 16.0934 0 0
10:53 am 10:53 Cloudy 37 2.8 34 1.1 89 89 SSW 10 17 30.01 1016 10 16.0934 0 0
11:53 am 11:53 Cloudy with Light Rain 37 2.8 33 0.6 86 86 SW 13 20 30.01 1016 10 16.0934 0.001 0.001
12:53 pm 12:53 Cloudy 38 3.3 34 1.1 86 86 SW 9 15 29.99 1016 9 14.48406 0.01 0.254
1:53 pm 13:53 Cloudy with Light Rain 37 2.8 33 0.6 86 86 SW 15 24 29.98 1015 8 12.87472 0.001 0.001
2:53 pm 14:53 Cloudy 37 2.8 33 0.6 86 86 SW 12 19 29.98 1015 9 14.48406 0.001 0.001
3:53 pm 15:53 Cloudy with Light Rain 37 2.8 33 0.6 86 86 SW 12 19 29.98 1015 7 11.26538 0.001 0.001
4:53 pm 16:53 Cloudy with Light Rain 36 2.2 33 0.6 89 89 SW 13 20 29.98 1015 6 9.65604 0.001 0.001
5:53 pm 17:53 Cloudy 36 2.2 33 0.6 89 89 SW 15 24 29.99 1016 8 12.87472 0.001 0.001
6:41 pm 18:41 Cloudy 36 2.2 32 0 86 86 WSW 16 26 30.01 1016 8 12.87472 0.001 0.001
6:53 pm 18:53 Cloudy with Light Rain 36 2.2 32 0 86 86 WSW 12 19 30 1016 7 11.26538 0.001 0.001
7:15 pm 19:15 Cloudy 36 2.2 31 -0.6 82 82 WSW 15 24 30.02 1017 9 14.48406 0.001 0.001
7:53 pm 19:53 Cloudy 35 1.7 32 0 89 89 WSW 13 20 30.02 1017 8 12.87472 0.001 0.001
8:53 pm 20:53 Cloudy 35 1.7 32 0 89 89 SW 15 24 30.01 1016 8 12.87472 0.001 0.001
9:53 pm 21:53 Cloudy 35 1.7 31 -0.6 85 85 WSW 15 24 30.02 1017 10 16.0934 0 0
10:44 pm 22:44 Cloudy 34 1.1 31 -0.6 89 89 WSW 14 22 30.05 1017 10 16.0934 0 0
10:53 pm 22:53 Cloudy 34 1.1 31 -0.6 89 89 SW 14 22 30.03 1017 10 16.0934 0 0
11:53 pm 23:53 Cloudy with Mist and Fog 34 1.1 31 -0.6 89 89 WSW 10 17 30.02 1017 4 6.43736 0 0

Powered by AerisWeather